Creston, IA

7:14 PM CST on February 25, 2017 (GMT -0600)
Creston Municipal

Weather History for KCSQ - January, 2013

Change the Weather History Date:

Saturday, January 5, 2013

  Actual Average Record
Temperature  
Mean Temperature 32 °F -  
Max Temperature 39 °F 27 °F 64 °F (1956)
Min Temperature 24 °F 11 °F -12 °F (1959)
Degree Days  
Heating Degree Days 34    
Moisture  
Dew Point 23 °F    
Average Humidity 77    
Maximum Humidity 86    
Minimum Humidity 65    
Precipitation  
Precipitation 0.00 in - - ()
Sea Level Pressure  
Sea Level Pressure 30.06 in    
Wind  
Wind Speed 12 mph (SW)    
Max Wind Speed 21 mph    
Max Gust Speed 28 mph    
Visibility 10 miles    
Events      
Averages and records for this station are not official NWS values.
T = Trace of Precipitation, MM = Missing Value Source: NWS Daily Summary

Daily Weather History Graph

Daily Weather History Graph

Search for Another Location

Airport or City:

Trip Planner

Search our weather history database for the weather conditions in past years. The results will help you decide how hot, cold, wet, or windy it might be!

Date:

Astronomy

Jan. 05, 2013 Rise Set
Actual Time 7:42 AM CST 5:03 PM CST
Civil Twilight 7:11 AM CST 5:34 PM CST
Nautical Twilight 6:37 AM CST 6:08 PM CST
Astronomical Twilight 6:04 AM CST 6:42 PM CST
Moon 12:48 AM CST (1/5) 11:55 AM CST (1/5)
Length of Visible Light 10h 22m
Length of Day
9h 21m
Last Quarter, 44% of the Moon is Illuminated
Jan 5
Last Quarter
Jan 11
New
Jan 18
First Quarter
Jan 26
Full
Feb 3
Last Quarter

Hourly Weather History & Observations

Time (CST) Temp. Windchill Dew Point Humidity Pressure Visibility Wind Dir Wind Speed Gust Speed Precip Events Conditions
12:15 AM 26.6 °F 17.5 °F 21.2 °F 80% 30.15 in 10.0 mi SSW 9.2 mph - N/A   Clear
12:35 AM 26.6 °F 17.5 °F 21.2 °F 80% 30.14 in 10.0 mi SSW 9.2 mph - N/A   Clear
12:55 AM 26.6 °F 19.1 °F 21.2 °F 80% 30.13 in 10.0 mi SSW 6.9 mph - N/A   Clear
1:15 AM 26.6 °F 18.2 °F 21.2 °F 80% 30.13 in 10.0 mi SSW 8.1 mph - N/A   Clear
1:35 AM 24.8 °F 15.3 °F 19.4 °F 80% 30.13 in 10.0 mi South 9.2 mph - N/A   Clear
1:55 AM 24.8 °F 14.0 °F 19.4 °F 80% 30.13 in 10.0 mi South 11.5 mph - N/A   Clear
2:15 AM 24.8 °F 14.6 °F 19.4 °F 80% 30.13 in 10.0 mi SSW 10.4 mph - N/A   Clear
2:35 AM 24.8 °F 15.3 °F 19.4 °F 80% 30.13 in 10.0 mi SSW 9.2 mph - N/A   Clear
2:55 AM 24.8 °F 14.0 °F 19.4 °F 80% 30.13 in 10.0 mi SSW 11.5 mph - N/A   Clear
3:15 AM 24.8 °F 14.6 °F 19.4 °F 80% 30.13 in 10.0 mi SSW 10.4 mph - N/A   Clear
3:35 AM 24.8 °F 16.1 °F 19.4 °F 80% 30.12 in 10.0 mi SSW 8.1 mph - N/A   Clear
3:55 AM 24.8 °F 15.3 °F 19.4 °F 80% 30.12 in 10.0 mi SSW 9.2 mph - N/A   Clear
4:15 AM 26.6 °F 17.5 °F 21.2 °F 80% 30.11 in 10.0 mi SSW 9.2 mph - N/A   Clear
4:35 AM 26.6 °F 15.7 °F 21.2 °F 80% 30.10 in 10.0 mi SSW 12.7 mph - N/A   Clear
4:55 AM 26.6 °F 16.8 °F 21.2 °F 80% 30.09 in 10.0 mi SSW 10.4 mph - N/A   Clear
5:15 AM 26.6 °F 17.5 °F 21.2 °F 80% 30.08 in 10.0 mi SSW 9.2 mph - N/A   Clear
5:35 AM 26.6 °F 15.2 °F 21.2 °F 80% 30.08 in 10.0 mi SSW 13.8 mph - N/A   Scattered Clouds
5:55 AM 28.4 °F 19.1 °F 21.2 °F 74% 30.08 in 10.0 mi SSW 10.4 mph - N/A   Scattered Clouds
6:15 AM 26.6 °F 15.7 °F 21.2 °F 80% 30.08 in 10.0 mi South 12.7 mph - N/A   Clear
6:35 AM 26.6 °F 15.2 °F 21.2 °F 80% 30.08 in 10.0 mi South 13.8 mph - N/A   Clear
6:55 AM 26.6 °F 15.7 °F 21.2 °F 80% 30.07 in 10.0 mi South 12.7 mph - N/A   Clear
7:15 AM 24.8 °F 14.0 °F 19.4 °F 80% 30.07 in 10.0 mi South 11.5 mph - N/A   Clear
7:35 AM 26.6 °F 15.7 °F 21.2 °F 80% 30.07 in 10.0 mi South 12.7 mph - N/A   Scattered Clouds
7:55 AM 26.6 °F 16.8 °F 21.2 °F 80% 30.07 in 10.0 mi SSW 10.4 mph - N/A   Overcast
8:15 AM 26.6 °F 16.8 °F 21.2 °F 80% 30.08 in 10.0 mi SSW 10.4 mph - N/A   Mostly Cloudy
8:35 AM 26.6 °F 16.8 °F 21.2 °F 80% 30.08 in 10.0 mi SSW 10.4 mph - N/A   Scattered Clouds
8:55 AM 26.6 °F 16.8 °F 21.2 °F 80% 30.08 in 10.0 mi SSW 10.4 mph - N/A   Scattered Clouds
9:15 AM 28.4 °F 18.0 °F 24.8 °F 86% 30.07 in 10.0 mi South 12.7 mph - N/A   Overcast
9:55 AM 30.2 °F 20.2 °F 26.6 °F 86% 30.07 in 10.0 mi SSW 12.7 mph - N/A   Overcast
10:15 AM 32.0 °F 23.6 °F 26.6 °F 80% 30.08 in 10.0 mi SSW 10.4 mph - N/A   Overcast
10:55 AM 35.6 °F 25.5 °F 30.2 °F 81% 30.05 in 10.0 mi SSW 17.3 mph - N/A   Mostly Cloudy
11:15 AM 37.4 °F 27.5 °F 30.2 °F 75% 30.04 in 10.0 mi SSW 18.4 mph 24.2 mph N/A   Scattered Clouds
11:35 AM 37.4 °F 27.5 °F 30.2 °F 75% 30.02 in 10.0 mi SSW 18.4 mph 23.0 mph N/A   Mostly Cloudy
11:55 AM 35.6 °F 25.5 °F 30.2 °F 81% 30.02 in 10.0 mi SSW 17.3 mph 23.0 mph N/A   Overcast
12:15 PM 37.4 °F 27.8 °F 30.2 °F 75% 30.00 in 10.0 mi SW 17.3 mph 21.9 mph N/A   Overcast
12:35 PM 35.6 °F 25.5 °F 30.2 °F 81% 29.99 in 10.0 mi SW 17.3 mph 23.0 mph N/A   Overcast
12:55 PM 35.6 °F 26.2 °F 30.2 °F 81% 29.97 in 10.0 mi SW 15.0 mph - N/A   Overcast
1:15 PM 37.4 °F 28.5 °F 30.2 °F 75% 29.96 in 10.0 mi SSW 15.0 mph - N/A   Overcast
1:35 PM 37.4 °F 28.5 °F 30.2 °F 75% 29.96 in 10.0 mi SW 15.0 mph - N/A   Overcast
1:55 PM 37.4 °F 28.9 °F 30.2 °F 75% 29.95 in 10.0 mi SW 13.8 mph - N/A   Overcast
2:15 PM 37.4 °F 27.5 °F 30.2 °F 75% 29.95 in 10.0 mi WSW 18.4 mph 24.2 mph N/A   Overcast
2:35 PM 37.4 °F 28.5 °F 30.2 °F 75% 29.96 in 10.0 mi WSW 15.0 mph 20.7 mph N/A   Overcast
2:55 PM 37.4 °F 28.5 °F 28.4 °F 70% 29.95 in 10.0 mi WSW 15.0 mph - N/A   Overcast
3:15 PM 37.4 °F 28.9 °F 30.2 °F 75% 29.95 in 10.0 mi WSW 13.8 mph 20.7 mph N/A   Mostly Cloudy
3:35 PM 39.2 °F 31.2 °F 28.4 °F 65% 29.96 in 10.0 mi WSW 13.8 mph 23.0 mph N/A   Mostly Cloudy
3:55 PM 37.4 °F 28.2 °F 28.4 °F 70% 29.97 in 10.0 mi West 16.1 mph - N/A   Mostly Cloudy
4:15 PM 37.4 °F 27.5 °F 28.4 °F 70% 29.98 in 10.0 mi West 18.4 mph 25.3 mph N/A   Scattered Clouds
4:55 PM 35.6 °F 25.2 °F 26.6 °F 70% 29.99 in 10.0 mi West 18.4 mph - N/A   Clear
5:15 PM 33.8 °F 24.3 °F 24.8 °F 70% 30.00 in 10.0 mi West 13.8 mph 19.6 mph N/A   Clear
5:35 PM 32.0 °F 20.1 °F 24.8 °F 75% 30.01 in 10.0 mi West 19.6 mph 27.6 mph N/A   Clear
5:55 PM 30.2 °F 18.5 °F 21.2 °F 69% 30.02 in 10.0 mi West 17.3 mph - N/A   Clear
6:15 PM 30.2 °F 20.2 °F 21.2 °F 69% 30.02 in 10.0 mi West 12.7 mph - N/A   Clear
6:35 PM 28.4 °F 19.7 °F 21.2 °F 74% 30.03 in 10.0 mi West 9.2 mph - N/A   Clear
6:55 PM 28.4 °F 18.5 °F 21.2 °F 74% 30.04 in 10.0 mi West 11.5 mph - N/A   Clear
7:15 PM 28.4 °F 20.4 °F 19.4 °F 69% 30.05 in 10.0 mi West 8.1 mph - N/A   Clear
7:55 PM 26.6 °F 22.6 °F 19.4 °F 74% 30.06 in 10.0 mi WSW 3.5 mph - N/A   Clear
8:15 PM 24.8 °F 16.9 °F 19.4 °F 80% 30.06 in 10.0 mi WSW 6.9 mph - N/A   Clear
8:35 PM 24.8 °F 16.9 °F 19.4 °F 80% 30.06 in 10.0 mi West 6.9 mph - N/A   Scattered Clouds
8:55 PM 26.6 °F 16.8 °F 19.4 °F 74% 30.07 in 10.0 mi West 10.4 mph - N/A   Mostly Cloudy
9:15 PM 28.4 °F 18.0 °F 21.2 °F 74% 30.07 in 10.0 mi West 12.7 mph - N/A   Overcast
9:35 PM 28.4 °F 17.5 °F 21.2 °F 74% 30.07 in 10.0 mi WNW 13.8 mph - N/A   Overcast
9:55 PM 26.6 °F 13.1 °F 19.4 °F 74% 30.08 in 10.0 mi WNW 19.6 mph 26.5 mph N/A   Overcast
10:15 PM 26.6 °F 13.8 °F 19.4 °F 74% 30.08 in 10.0 mi NW 17.3 mph 26.5 mph N/A   Overcast
10:35 PM 26.6 °F 14.7 °F 19.4 °F 74% 30.08 in 10.0 mi WNW 15.0 mph - N/A   Overcast
10:55 PM 26.6 °F 13.1 °F 19.4 °F 74% 30.09 in 10.0 mi NW 19.6 mph 26.5 mph N/A   Overcast
11:15 PM 24.8 °F 10.3 °F 17.6 °F 74% 30.11 in 7.0 mi NW 20.7 mph 26.5 mph N/A   Overcast
11:35 PM 24.8 °F 10.7 °F 17.6 °F 74% 30.11 in 10.0 mi NW 19.6 mph 26.5 mph N/A   Overcast
11:55 PM 24.8 °F 11.1 °F 17.6 °F 74% 30.11 in 10.0 mi NW 18.4 mph 21.9 mph N/A   Overcast